Terminal Aerodrome Forecast
Issued by NWS

Home | Current Version | Previous Version | Text Only | Print | Product List | Glossary On
Versions: 1 2 3 4 5 6 7 8 9 10 11 12 13 14 15 16 17 18 19
000
FTUS44 KTSA 031000 AAB
TAFFYV
TAF AMD
KFYV 031016Z 0310/0406 20008KT P6SM OVC007
      TEMPO 0310/0314 5SM BR OVC003
     FM031400 19011KT P6SM OVC004
     FM032000 22009KT P6SM OVC015 PROB30 0320/0402 2SM -RA BR OVC007
     FM040200 31005KT P6SM VCSH OVC015
      TEMPO 0402/0406 2SM -RA BR OVC007=

USA.gov is the U.S. government's official web portal to all federal, state and local government web resources and services.